Welcome to the New NWS' Forecast!
Most changes are behind the scenes, but click here for differences you might notice.

Regional Weather Roundup (RWR)

Issued by National Weather Service (NWS)

                            
164 
ASUS46 KSEW 181710
RWRWA 

WASHINGTON REGIONAL WEATHER ROUNDUP
NATIONAL WEATHER SERVICE SEATTLE WA
1000 AM PDT WED JUL 18 2018

NOTE:"FAIR" INDICATES FEW OR NO CLOUDS BELOW 12,000 FEET WITH NO 
SIGNIFICANT WEATHER AND/OR OBSTRUCTIONS TO VISIBILITY.

WAZ507-509-555>559-181800-
SEATTLE, TACOMA, EVERETT, AND VICINITY
  
CITY           SKY/WX    TMP DP  RH WIND       PRES   REMARKS
EVERETT        CLOUDY    60  55  83 SW6       30.20R                  
BOEING FIELD   CLOUDY    63  54  72 S7        30.19S                  
RENTON         CLOUDY    64  55  72 MISG      30.19R                  
SEATAC AIRPORT CLOUDY    63  55  75 SW7       30.20S                  
JBLM-MCCHORD   CLOUDY    64  59  84 SW8       30.20R                  
PUYALLUP       CLOUDY    64  57  77 CALM      30.20S                  
BREMERTON      CLOUDY    60  54  80 S6        30.20R                  
JBLM-FT LEWIS  CLOUDY    63  59  88 S8        30.19S                  
TACOMA NARROWS CLOUDY    60  54  80 CALM      30.21R                  
$$
 
WAZ001-503-506-510-514-515-181800-
NORTH INTERIOR
  
CITY           SKY/WX    TMP DP  RH WIND       PRES   REMARKS
BELLINGHAM     MOSUNNY   65  56  72 S12G21    30.16R                  
FRIDAY HARBOR  CLOUDY    60  53  77 VRB7      30.18S                  
EASTSOUND      MOSUNNY   63  55  77 S15       30.15R                  
PORT ANGELES   CLOUDY    57  53  86 NE3       30.18S                  
EDIZ HOOK      CLOUDY    55  52  89 NW7       30.18S                  
PORT TOWNSEND  CLOUDY    61  59  94 E6        30.18S                  
NAS WHIDBEY    PTSUNNY   62  53  72 W6        30.22S                  
ARLINGTON      CLOUDY    64  57  78 SW5       30.19S                  
BURLINGTON     CLOUDY    64  57  77 S8        30.18S                  
$$
 
WAZ020-022-039-040-504-511-512-181800-
SOUTHWEST INTERIOR
  
CITY           SKY/WX    TMP DP  RH WIND       PRES   REMARKS
SHELTON        CLOUDY    60  53  77 VRB6      30.18S                  
OLYMPIA        CLOUDY    62  54  74 SW7       30.20R                  
CHEHALIS       CLOUDY    66  57  72 SW8       30.20S                  
KELSO          CLOUDY    63  58  83 NW7       30.22S                  
VANCOUVER      CLOUDY    66  57  72 CALM      30.21S                  
SCAPPOOSE, OR  CLOUDY    67  57  70 E5        30.20S                  
PORTLAND, OR   CLOUDY    68  56  65 N3        30.21S                  
$$
 
WAZ021-516-517-181800-
WASHINGTON COAST
  
CITY           SKY/WX    TMP DP  RH WIND       PRES   REMARKS
FORKS          CLOUDY    60  56  86 NW5       30.21R                  
HOQUIAM        CLOUDY    60  57  89 W10       30.22R                  
ASTORIA, OR    CLOUDY    60  58  92 NW9       30.23S                  
$$
 
WAZ019-023-024-040-567>569-181800-
CASCADE MOUNTAINS AND COLUMBIA GORGE
  
CITY           SKY/WX    TMP DP  RH WIND       PRES   REMARKS
STAMPEDE PASS  MOSUNNY   53  52  96 W8        30.21S                  
TROUTDALE, OR  CLOUDY    68  55  63 NW3       30.21S                  
HOOD RIVER, OR SUNNY     68  54  60 W17G26    30.12S                  
THE DALLES, OR SUNNY     75  54  47 NW25G33   30.06R                  
$$

WAZ026-027-041>044-520-521-181800-
EAST SLOPES
  
CITY           SKY/WX    TMP DP  RH WIND       PRES   REMARKS
OMAK           SUNNY     87  46  24 N9        29.95S                  
WENATCHEE      SUNNY     82  46  28 NW18      29.98S                  
ELLENSBURG     SUNNY     78  47  33 NW26G37   30.02S                  
YAKIMA         SUNNY     86  49  27 NW13      30.01F                  
SUNNYSIDE ARPT SUNNY     81  54  40 W6        30.00S                  
YAKIMA TC        N/A     84  37  18 W17       29.99F                  
$$

WAZ028-034-035-181800-
COLUMBIA BASIN
  
CITY           SKY/WX    TMP DP  RH WIND       PRES   REMARKS
EPHRATA        SUNNY     88  38  17 NW9       29.96S                  
MOSES LAKE     SUNNY     84  45  25 SW12      29.98R                  
PASCO          SUNNY     84  52  33 SW12      29.99S                  
RICHLAND ARPT  SUNNY     87  47  25 SW13      29.98S                  
HERMISTON, OR  SUNNY     83  50  31 W20G28    30.02S                  
$$

WAZ036>038-181800-
NORTHEAST WASHINGTON
  
CITY           SKY/WX    TMP DP  RH WIND       PRES   REMARKS
SPOKANE GEIGER SUNNY     76  45  33 S15       30.04R                  
SPOKANE FELTS  SUNNY     79  44  28 S15       30.03S                  
FAIRCHILD AFB  SUNNY     76  46  33 S13       30.03R                  
COEURDALENE,ID SUNNY     77  48  35 S13G20    30.05S                  
DEER PARK      SUNNY     76  48  37 S8        30.03S                  
$$

WAZ029>033-181800-
SOUTHEAST WASHINGTON
  
CITY           SKY/WX    TMP DP  RH WIND       PRES   REMARKS
PULLMAN        SUNNY     78  40  25 W16G23    30.09S                  
LEWISTON, ID   SUNNY     81  50  33 N7        30.03S                  
WALLA WALLA    SUNNY     84  45  25 SW14      30.04S                  
PENDLETON, OR  SUNNY     84  44  24 W15G22    30.05S                  
$$